Year,Month,Day,Hour,Minute,Value (Times are PST for temperature in C)
2016,01,18,00,00,8.10
2016,01,18,00,01,8.10
2016,01,18,00,02,8.20
2016,01,18,00,03,8.20
2016,01,18,00,04,8.20
2016,01,18,00,05,8.20
2016,01,18,00,06,8.20
2016,01,18,00,07,8.20
2016,01,18,00,08,8.30
2016,01,18,00,09,8.30
2016,01,18,00,10,8.30
2016,01,18,00,11,8.30
2016,01,18,00,12,8.30
2016,01,18,00,13,8.30
2016,01,18,00,14,8.30
2016,01,18,00,15,8.30
2016,01,18,00,16,8.30
2016,01,18,00,17,8.30
2016,01,18,00,18,8.30
2016,01,18,00,19,8.30
2016,01,18,00,20,8.40
2016,01,18,00,21,8.40
2016,01,18,00,22,8.40
2016,01,18,00,23,8.40
2016,01,18,00,24,8.40
2016,01,18,00,25,8.40
2016,01,18,00,26,8.40
2016,01,18,00,27,8.40
2016,01,18,00,28,8.40
2016,01,18,00,29,8.40
2016,01,18,00,30,8.40
2016,01,18,00,31,8.40
2016,01,18,00,32,8.40
2016,01,18,00,33,8.40
2016,01,18,00,34,8.40
2016,01,18,00,35,8.40
2016,01,18,00,36,8.40
2016,01,18,00,37,8.40
2016,01,18,00,38,8.40
2016,01,18,00,39,8.40
2016,01,18,00,40,8.40
2016,01,18,00,41,8.40
2016,01,18,00,42,8.40
2016,01,18,00,43,8.40
2016,01,18,00,44,8.40
2016,01,18,00,45,8.40
2016,01,18,00,46,8.40
2016,01,18,00,47,8.40
2016,01,18,00,48,8.40
2016,01,18,00,49,8.40
2016,01,18,00,50,8.40
2016,01,18,00,51,8.40
2016,01,18,00,52,8.40
2016,01,18,00,53,8.40
2016,01,18,00,54,8.40
2016,01,18,00,55,8.40
2016,01,18,00,56,8.40
2016,01,18,00,57,8.30
2016,01,18,00,58,8.30
2016,01,18,00,59,8.30
2016,01,18,01,00,8.30
2016,01,18,01,01,8.30
2016,01,18,01,02,8.20
2016,01,18,01,03,8.20
2016,01,18,01,04,8.20
2016,01,18,01,05,8.20
2016,01,18,01,06,8.20
2016,01,18,01,07,8.20
2016,01,18,01,08,8.20
2016,01,18,01,09,8.20
2016,01,18,01,10,8.20
2016,01,18,01,11,8.20
2016,01,18,01,12,8.20
2016,01,18,01,13,8.20
2016,01,18,01,14,8.20
2016,01,18,01,15,8.30
2016,01,18,01,16,8.30
2016,01,18,01,17,8.30
2016,01,18,01,18,8.30
2016,01,18,01,19,8.30
2016,01,18,01,20,8.30
2016,01,18,01,21,8.30
2016,01,18,01,22,8.30
2016,01,18,01,23,8.30
2016,01,18,01,24,8.30
2016,01,18,01,25,8.30
2016,01,18,01,26,8.30
2016,01,18,01,27,8.30
2016,01,18,01,28,8.30
2016,01,18,01,29,8.30
2016,01,18,01,30,8.30
2016,01,18,01,31,8.30
2016,01,18,01,32,8.30
2016,01,18,01,33,8.30
2016,01,18,01,34,8.30
2016,01,18,01,35,8.30
2016,01,18,01,36,8.30
2016,01,18,01,37,8.30
2016,01,18,01,38,8.30
2016,01,18,01,39,8.30
2016,01,18,01,40,8.30
2016,01,18,01,41,8.30
2016,01,18,01,42,8.30
2016,01,18,01,43,8.30
2016,01,18,01,44,8.30
2016,01,18,01,45,8.30
2016,01,18,01,46,8.30
2016,01,18,01,47,8.30
2016,01,18,01,48,8.30
2016,01,18,01,49,8.20
2016,01,18,01,50,8.20
2016,01,18,01,51,8.20
2016,01,18,01,52,8.20
2016,01,18,01,53,8.20
2016,01,18,01,54,8.10
2016,01,18,01,55,8.10
2016,01,18,01,56,8.10
2016,01,18,01,57,8.10
2016,01,18,01,58,8.10
2016,01,18,01,59,8.10
2016,01,18,02,00,8.10
2016,01,18,02,01,8.10
2016,01,18,02,02,8.10
2016,01,18,02,03,8.10
2016,01,18,02,04,8.10
2016,01,18,02,05,8.10
2016,01,18,02,06,8.10
2016,01,18,02,07,8.10
2016,01,18,02,08,8.10
2016,01,18,02,09,8.10
2016,01,18,02,10,8.10
2016,01,18,02,11,8.10
2016,01,18,02,12,8.10
2016,01,18,02,13,8.10
2016,01,18,02,14,8.10
2016,01,18,02,15,8.10
2016,01,18,02,16,8.10
2016,01,18,02,17,8.10
2016,01,18,02,18,8.10
2016,01,18,02,19,8.20
2016,01,18,02,20,8.20
2016,01,18,02,21,8.20
2016,01,18,02,22,8.20
2016,01,18,02,23,8.20
2016,01,18,02,24,8.20
2016,01,18,02,25,8.20
2016,01,18,02,26,8.20
2016,01,18,02,27,8.20
2016,01,18,02,28,8.20
2016,01,18,02,29,8.20
2016,01,18,02,30,8.10
2016,01,18,02,31,8.10
2016,01,18,02,32,8.10
2016,01,18,02,33,8.10
2016,01,18,02,34,8.10
2016,01,18,02,35,8.10
2016,01,18,02,36,8.10
2016,01,18,02,37,8.00
2016,01,18,02,38,8.00
2016,01,18,02,39,8.00
2016,01,18,02,40,8.00
2016,01,18,02,41,7.90
2016,01,18,02,42,7.90
2016,01,18,02,43,7.90
2016,01,18,02,44,7.90
2016,01,18,02,45,7.90
2016,01,18,02,46,7.90
2016,01,18,02,47,7.90
2016,01,18,02,48,7.90
2016,01,18,02,49,7.90
2016,01,18,02,50,7.90
2016,01,18,02,51,7.90
2016,01,18,02,52,7.90
2016,01,18,02,53,7.90
2016,01,18,02,54,7.90
2016,01,18,02,55,7.90
2016,01,18,02,56,7.90
2016,01,18,02,57,7.90
2016,01,18,02,58,7.90
2016,01,18,02,59,7.90
2016,01,18,03,00,8.00
2016,01,18,03,01,8.00
2016,01,18,03,02,8.00
2016,01,18,03,03,8.00
2016,01,18,03,04,8.00
2016,01,18,03,05,8.00
2016,01,18,03,06,8.00
2016,01,18,03,07,8.00
2016,01,18,03,08,8.00
2016,01,18,03,09,7.90
2016,01,18,03,10,7.90
2016,01,18,03,11,7.90
2016,01,18,03,12,7.90
2016,01,18,03,13,7.90
2016,01,18,03,14,7.90
2016,01,18,03,15,7.90
2016,01,18,03,16,7.90
2016,01,18,03,17,7.90
2016,01,18,03,18,7.90
2016,01,18,03,19,7.90
2016,01,18,03,20,7.90
2016,01,18,03,21,7.90
2016,01,18,03,22,7.90
2016,01,18,03,23,7.90
2016,01,18,03,24,7.90
2016,01,18,03,25,7.90
2016,01,18,03,26,7.80
2016,01,18,03,27,7.90
2016,01,18,03,28,7.90
2016,01,18,03,29,7.80
2016,01,18,03,30,7.80
2016,01,18,03,31,7.80
2016,01,18,03,32,7.80
2016,01,18,03,33,7.80
2016,01,18,03,34,7.80
2016,01,18,03,35,7.80
2016,01,18,03,36,7.80
2016,01,18,03,37,7.80
2016,01,18,03,38,7.80
2016,01,18,03,39,7.80
2016,01,18,03,40,7.80
2016,01,18,03,41,7.80
2016,01,18,03,42,7.70
2016,01,18,03,43,7.70
2016,01,18,03,44,7.70
2016,01,18,03,45,7.70
2016,01,18,03,46,7.70
2016,01,18,03,47,7.70
2016,01,18,03,48,7.70
2016,01,18,03,49,7.60
2016,01,18,03,50,7.60
2016,01,18,03,51,7.60
2016,01,18,03,52,7.60
2016,01,18,03,53,7.60
2016,01,18,03,54,7.60
2016,01,18,03,55,7.60
2016,01,18,03,56,7.60
2016,01,18,03,57,7.60
2016,01,18,03,58,7.60
2016,01,18,03,59,7.60
2016,01,18,04,00,7.60
2016,01,18,04,01,7.60
2016,01,18,04,02,7.50
2016,01,18,04,03,7.50
2016,01,18,04,04,7.50
2016,01,18,04,05,7.50
2016,01,18,04,06,7.50
2016,01,18,04,07,7.50
2016,01,18,04,08,7.40
2016,01,18,04,09,7.50
2016,01,18,04,10,7.40
2016,01,18,04,11,7.40
2016,01,18,04,12,7.40
2016,01,18,04,13,7.40
2016,01,18,04,14,7.40
2016,01,18,04,15,7.40
2016,01,18,04,16,7.40
2016,01,18,04,17,7.40
2016,01,18,04,18,7.40
2016,01,18,04,19,7.30
2016,01,18,04,20,7.30
2016,01,18,04,21,7.30
2016,01,18,04,22,7.30
2016,01,18,04,23,7.20
2016,01,18,04,24,7.20
2016,01,18,04,25,7.20
2016,01,18,04,26,7.20
2016,01,18,04,27,7.10
2016,01,18,04,28,7.10
2016,01,18,04,29,7.00
2016,01,18,04,30,7.00
2016,01,18,04,31,7.00
2016,01,18,04,32,7.10
2016,01,18,04,33,7.10
2016,01,18,04,34,7.20
2016,01,18,04,35,7.20
2016,01,18,04,36,7.20
2016,01,18,04,37,7.20
2016,01,18,04,38,7.30
2016,01,18,04,39,7.30
2016,01,18,04,40,7.30
2016,01,18,04,41,7.30
2016,01,18,04,42,7.30
2016,01,18,04,43,7.30
2016,01,18,04,44,7.30
2016,01,18,04,45,7.30
2016,01,18,04,46,7.30
2016,01,18,04,47,7.30
2016,01,18,04,48,7.20
2016,01,18,04,49,7.20
2016,01,18,04,50,7.20
2016,01,18,04,51,7.20
2016,01,18,04,52,7.20
2016,01,18,04,53,7.20
2016,01,18,04,54,7.20
2016,01,18,04,55,7.10
2016,01,18,04,56,7.10
2016,01,18,04,57,7.10
2016,01,18,04,58,7.10
2016,01,18,04,59,7.10
2016,01,18,05,00,7.10
2016,01,18,05,01,7.10
2016,01,18,05,02,7.00
2016,01,18,05,03,7.00
2016,01,18,05,04,7.00
2016,01,18,05,05,7.00
2016,01,18,05,06,7.00
2016,01,18,05,07,7.00
2016,01,18,05,08,7.00
2016,01,18,05,09,7.00
2016,01,18,05,10,7.00
2016,01,18,05,11,7.00
2016,01,18,05,12,7.10
2016,01,18,05,13,7.10
2016,01,18,05,14,7.10
2016,01,18,05,15,7.10
2016,01,18,05,16,7.10
2016,01,18,05,17,7.10
2016,01,18,05,18,7.10
2016,01,18,05,19,7.10
2016,01,18,05,20,7.10
2016,01,18,05,21,7.10
2016,01,18,05,22,7.10
2016,01,18,05,23,7.10
2016,01,18,05,24,7.00
2016,01,18,05,25,7.00
2016,01,18,05,26,7.00
2016,01,18,05,27,6.90
2016,01,18,05,28,6.90
2016,01,18,05,29,6.90
2016,01,18,05,30,6.90
2016,01,18,05,31,6.90
2016,01,18,05,32,6.90
2016,01,18,05,33,6.90
2016,01,18,05,34,6.90
2016,01,18,05,35,6.90
2016,01,18,05,36,6.90
2016,01,18,05,37,6.90
2016,01,18,05,38,6.90
2016,01,18,05,39,6.90
2016,01,18,05,40,6.90
2016,01,18,05,41,6.90
2016,01,18,05,42,6.90
2016,01,18,05,43,7.00
2016,01,18,05,44,7.00
2016,01,18,05,45,7.10
2016,01,18,05,46,7.10
2016,01,18,05,47,7.20
2016,01,18,05,48,7.20
2016,01,18,05,49,7.30
2016,01,18,05,50,7.30
2016,01,18,05,51,7.30
2016,01,18,05,52,7.30
2016,01,18,05,53,7.30
2016,01,18,05,54,7.30
2016,01,18,05,55,7.30
2016,01,18,05,56,7.30
2016,01,18,05,57,7.30
2016,01,18,05,58,7.30
2016,01,18,05,59,7.30
2016,01,18,06,00,7.30
2016,01,18,06,01,7.30
2016,01,18,06,02,7.30
2016,01,18,06,03,7.30
2016,01,18,06,04,7.40
2016,01,18,06,05,7.40
2016,01,18,06,06,7.40
2016,01,18,06,07,7.40
2016,01,18,06,08,7.40
2016,01,18,06,09,7.40
2016,01,18,06,10,7.40
2016,01,18,06,11,7.40
2016,01,18,06,12,7.40
2016,01,18,06,13,7.50
2016,01,18,06,14,7.40
2016,01,18,06,15,7.40
2016,01,18,06,16,7.50
2016,01,18,06,17,7.40
2016,01,18,06,18,7.40
2016,01,18,06,19,7.50
2016,01,18,06,20,7.50
2016,01,18,06,21,7.50
2016,01,18,06,22,7.50
2016,01,18,06,23,7.50
2016,01,18,06,24,7.50
2016,01,18,06,25,7.50
2016,01,18,06,26,7.50
2016,01,18,06,27,7.60
2016,01,18,06,28,7.60
2016,01,18,06,29,7.60
2016,01,18,06,30,7.60
2016,01,18,06,31,7.60
2016,01,18,06,32,7.60
2016,01,18,06,33,7.60
2016,01,18,06,34,7.60
2016,01,18,06,35,7.50
2016,01,18,06,36,7.50
2016,01,18,06,37,7.50
2016,01,18,06,38,7.50
2016,01,18,06,39,7.50
2016,01,18,06,40,7.50
2016,01,18,06,41,7.60
2016,01,18,06,42,7.60
2016,01,18,06,43,7.60
2016,01,18,06,44,7.60
2016,01,18,06,45,7.60
2016,01,18,06,46,7.60
2016,01,18,06,47,7.60
2016,01,18,06,48,7.60
2016,01,18,06,49,7.60
2016,01,18,06,50,7.60
2016,01,18,06,51,7.60
2016,01,18,06,52,7.60
2016,01,18,06,53,7.60
2016,01,18,06,54,7.60
2016,01,18,06,55,7.60
2016,01,18,06,56,7.50
2016,01,18,06,57,7.50
2016,01,18,06,58,7.50
2016,01,18,06,59,7.50
2016,01,18,07,00,7.50
2016,01,18,07,01,7.50
2016,01,18,07,02,7.50
2016,01,18,07,03,7.50
2016,01,18,07,04,7.50
2016,01,18,07,05,7.50
2016,01,18,07,06,7.50
2016,01,18,07,07,7.50
2016,01,18,07,08,7.50
2016,01,18,07,09,7.40
2016,01,18,07,10,7.40
2016,01,18,07,11,7.40
2016,01,18,07,12,7.40
2016,01,18,07,13,7.40
2016,01,18,07,14,7.40
2016,01,18,07,15,7.40
2016,01,18,07,16,7.40
2016,01,18,07,17,7.30
2016,01,18,07,18,7.30
2016,01,18,07,19,7.30
2016,01,18,07,20,7.20
2016,01,18,07,21,7.20
2016,01,18,07,22,7.20
2016,01,18,07,23,7.10
2016,01,18,07,24,7.10
2016,01,18,07,25,7.10
2016,01,18,07,26,7.00
2016,01,18,07,27,7.00
2016,01,18,07,28,6.90
2016,01,18,07,29,6.90
2016,01,18,07,30,6.90
2016,01,18,07,31,6.80
2016,01,18,07,32,6.80
2016,01,18,07,33,6.80
2016,01,18,07,34,6.70
2016,01,18,07,35,6.70
2016,01,18,07,36,6.70
2016,01,18,07,37,6.60
2016,01,18,07,38,6.60
2016,01,18,07,39,6.60
2016,01,18,07,40,6.60
2016,01,18,07,41,6.50
2016,01,18,07,42,6.50
2016,01,18,07,43,6.50
2016,01,18,07,44,6.50
2016,01,18,07,45,6.60
2016,01,18,07,46,6.60
2016,01,18,07,47,6.60
2016,01,18,07,48,6.60
2016,01,18,07,49,6.60
2016,01,18,07,50,6.60
2016,01,18,07,51,6.60
2016,01,18,07,52,6.60
2016,01,18,07,53,6.60
2016,01,18,07,54,6.60
2016,01,18,07,55,6.60
2016,01,18,07,56,6.60
2016,01,18,07,57,6.60
2016,01,18,07,58,6.60
2016,01,18,07,59,6.60
2016,01,18,08,00,6.60
2016,01,18,08,01,6.60
2016,01,18,08,02,6.60
2016,01,18,08,03,6.60
2016,01,18,08,04,6.70
2016,01,18,08,05,6.70
2016,01,18,08,06,6.80
2016,01,18,08,07,6.90
2016,01,18,08,08,6.90
2016,01,18,08,09,7.00
2016,01,18,08,10,7.00
2016,01,18,08,11,7.10
2016,01,18,08,12,7.10
2016,01,18,08,13,7.20
2016,01,18,08,14,7.20
2016,01,18,08,15,7.30
2016,01,18,08,16,7.30
2016,01,18,08,17,7.30
2016,01,18,08,18,7.30
2016,01,18,08,19,7.40
2016,01,18,08,20,7.40
2016,01,18,08,21,7.40
2016,01,18,08,22,7.40
2016,01,18,08,23,7.40
2016,01,18,08,24,7.40
2016,01,18,08,25,7.40
2016,01,18,08,26,7.40
2016,01,18,08,27,7.40
2016,01,18,08,28,7.40
2016,01,18,08,29,7.40
2016,01,18,08,30,7.40
2016,01,18,08,31,7.40
2016,01,18,08,32,7.40
2016,01,18,13,03,8.30
2016,01,18,13,04,8.30
2016,01,18,13,05,8.30
2016,01,18,13,06,8.30
2016,01,18,13,07,8.30
2016,01,18,13,08,8.30
2016,01,18,13,09,8.30
2016,01,18,13,10,8.30
2016,01,18,13,11,8.30
2016,01,18,13,12,8.30
2016,01,18,13,13,8.30
2016,01,18,13,14,8.30
2016,01,18,13,15,8.30
2016,01,18,13,16,8.20
2016,01,18,13,17,8.20
2016,01,18,13,18,8.20
2016,01,18,13,19,8.20
2016,01,18,13,20,8.20
2016,01,18,13,21,8.20
2016,01,18,13,22,8.20
2016,01,18,13,23,8.20
2016,01,18,13,24,8.20
2016,01,18,13,25,8.20
2016,01,18,13,26,8.20
2016,01,18,13,27,8.20
2016,01,18,13,28,8.20
2016,01,18,13,29,8.20
2016,01,18,13,30,8.20
2016,01,18,13,31,8.20
2016,01,18,13,32,8.10
2016,01,18,13,33,8.10
2016,01,18,13,34,8.10
2016,01,18,13,35,8.10
2016,01,18,13,36,8.10
2016,01,18,13,37,8.10
2016,01,18,13,38,8.10
2016,01,18,13,39,8.10
2016,01,18,13,40,8.10
2016,01,18,13,41,8.10
2016,01,18,13,42,8.10
2016,01,18,13,43,8.10
2016,01,18,13,44,8.10
2016,01,18,13,45,8.10
2016,01,18,13,46,8.10
2016,01,18,13,47,8.10
2016,01,18,13,48,8.10
2016,01,18,13,49,8.10
2016,01,18,13,50,8.10
2016,01,18,13,51,8.10
2016,01,18,13,52,8.10
2016,01,18,13,53,8.10
2016,01,18,13,54,8.10
2016,01,18,13,55,8.10
2016,01,18,13,56,8.10
2016,01,18,13,57,8.10
2016,01,18,13,58,8.10
2016,01,18,13,59,8.10
2016,01,18,14,00,8.10
2016,01,18,14,01,8.10
2016,01,18,14,02,8.10
2016,01,18,14,03,8.20
2016,01,18,14,04,8.20
2016,01,18,14,05,8.20
2016,01,18,14,06,8.20
2016,01,18,14,07,8.20
2016,01,18,14,08,8.10
2016,01,18,14,09,8.10
2016,01,18,14,10,8.10
2016,01,18,14,11,8.10
2016,01,18,14,12,8.10
2016,01,18,14,13,8.10
2016,01,18,14,14,8.10
2016,01,18,14,15,8.10
2016,01,18,14,16,8.10
2016,01,18,14,17,8.10
2016,01,18,14,18,8.10
2016,01,18,14,19,8.10
2016,01,18,14,20,8.10
2016,01,18,14,21,8.10
2016,01,18,14,22,8.00
2016,01,18,14,23,8.10
2016,01,18,14,24,8.10
2016,01,18,14,25,8.10
2016,01,18,14,26,8.10
2016,01,18,14,27,8.10
2016,01,18,14,28,8.10
2016,01,18,14,29,8.10
2016,01,18,14,30,8.10
2016,01,18,14,31,8.10
2016,01,18,14,32,8.10
2016,01,18,14,33,8.10
2016,01,18,14,34,8.10
2016,01,18,14,35,8.00
2016,01,18,14,36,8.00
2016,01,18,14,37,8.00
2016,01,18,14,38,8.00
2016,01,18,14,39,8.00
2016,01,18,14,40,8.00
2016,01,18,14,41,8.00
2016,01,18,14,42,8.00
2016,01,18,14,43,8.00
2016,01,18,14,44,8.00
2016,01,18,14,45,7.90
2016,01,18,14,46,7.90
2016,01,18,14,47,7.90
2016,01,18,14,48,7.90
2016,01,18,14,49,7.90
2016,01,18,14,50,7.90
2016,01,18,14,51,7.90
2016,01,18,14,52,7.90
2016,01,18,14,53,7.90
2016,01,18,14,54,7.90
2016,01,18,14,55,7.90
2016,01,18,14,56,8.00
2016,01,18,14,57,8.00
2016,01,18,14,58,8.00
2016,01,18,14,59,7.90
2016,01,18,15,00,7.90
2016,01,18,15,01,7.90
2016,01,18,15,02,7.90
2016,01,18,15,03,7.90
2016,01,18,15,04,7.90
2016,01,18,15,05,7.90
2016,01,18,15,06,7.90
2016,01,18,15,07,7.90
2016,01,18,15,08,7.90
2016,01,18,15,09,7.90
2016,01,18,15,10,7.90
2016,01,18,15,11,7.90
2016,01,18,15,12,7.90
2016,01,18,15,13,7.80
2016,01,18,15,14,7.80
2016,01,18,15,15,7.80
2016,01,18,15,16,7.80
2016,01,18,15,17,7.80
2016,01,18,15,18,7.80
2016,01,18,15,19,7.80
2016,01,18,15,20,7.80
2016,01,18,15,21,7.80
2016,01,18,15,22,7.80
2016,01,18,15,23,7.80
2016,01,18,15,24,7.80
2016,01,18,15,25,7.80
2016,01,18,15,26,7.80
2016,01,18,15,27,7.80
2016,01,18,15,28,7.80
2016,01,18,15,29,7.80
2016,01,18,15,30,7.80
2016,01,18,15,31,7.80
2016,01,18,15,32,7.80
2016,01,18,15,33,7.80
2016,01,18,15,34,7.80
2016,01,18,15,35,7.80
2016,01,18,15,36,7.80
2016,01,18,15,37,7.90
2016,01,18,15,38,7.90
2016,01,18,15,39,7.90
2016,01,18,15,40,8.00
2016,01,18,15,41,8.00
2016,01,18,15,42,8.10
2016,01,18,15,43,8.20
2016,01,18,15,44,8.30
2016,01,18,15,45,8.40
2016,01,18,15,46,8.50
2016,01,18,15,47,8.60
2016,01,18,15,48,8.70
2016,01,18,15,49,8.70
2016,01,18,15,50,8.70
2016,01,18,15,51,8.80
2016,01,18,15,52,8.90
2016,01,18,15,53,9.00
2016,01,18,15,54,9.10
2016,01,18,15,55,9.20
2016,01,18,15,56,9.30
2016,01,18,15,57,9.40
2016,01,18,15,58,9.50
2016,01,18,15,59,9.60
2016,01,18,16,00,9.60
2016,01,18,16,01,9.60
2016,01,18,16,02,9.60
2016,01,18,16,03,9.60
2016,01,18,16,04,9.70
2016,01,18,16,05,9.70
2016,01,18,16,06,9.70
2016,01,18,16,07,9.70
2016,01,18,16,08,9.70
2016,01,18,16,09,9.70
2016,01,18,16,10,9.70
2016,01,18,16,11,9.70
2016,01,18,16,12,9.70
2016,01,18,16,13,9.70
2016,01,18,16,14,9.80
2016,01,18,16,15,9.80
2016,01,18,16,16,9.80
2016,01,18,16,17,9.80
2016,01,18,16,18,9.80
2016,01,18,16,19,9.80
2016,01,18,16,20,9.80
2016,01,18,16,21,9.80
2016,01,18,16,22,9.80
2016,01,18,16,23,9.80
2016,01,18,16,24,9.80
2016,01,18,16,25,9.80
2016,01,18,16,26,9.80
2016,01,18,16,27,9.80
2016,01,18,16,28,9.80
2016,01,18,16,29,9.80
2016,01,18,16,30,9.80
2016,01,18,16,31,9.80
2016,01,18,16,32,9.80
2016,01,18,16,33,9.80
2016,01,18,16,34,9.80
2016,01,18,16,35,9.80
2016,01,18,16,36,9.80
2016,01,18,16,37,9.80
2016,01,18,16,38,9.80
2016,01,18,16,39,9.80
2016,01,18,16,40,9.80
2016,01,18,16,41,9.80
2016,01,18,16,42,9.80
2016,01,18,16,43,9.80
2016,01,18,16,44,9.80
2016,01,18,16,45,9.80
2016,01,18,16,46,9.80
2016,01,18,16,47,9.90
2016,01,18,16,48,9.90
2016,01,18,16,49,9.90
2016,01,18,16,50,10.00
2016,01,18,16,51,10.00
2016,01,18,16,52,10.00
2016,01,18,16,53,9.90
2016,01,18,16,54,9.90
2016,01,18,16,55,9.90
2016,01,18,16,56,9.90
2016,01,18,16,57,9.90
2016,01,18,16,58,9.90
2016,01,18,16,59,9.90
2016,01,18,17,00,9.90
2016,01,18,17,01,9.90
2016,01,18,17,02,9.90
2016,01,18,17,03,9.90
2016,01,18,17,04,9.90
2016,01,18,17,05,9.90
2016,01,18,17,06,9.90
2016,01,18,17,07,9.80
2016,01,18,17,08,9.80
2016,01,18,17,09,9.80
2016,01,18,17,10,9.80
2016,01,18,17,11,9.80
2016,01,18,17,12,9.80
2016,01,18,17,13,9.80
2016,01,18,17,14,9.80
2016,01,18,17,15,9.80
2016,01,18,17,16,9.80
2016,01,18,17,17,9.80
2016,01,18,17,18,9.80
2016,01,18,17,19,9.80
2016,01,18,17,20,9.80
2016,01,18,17,21,9.80
2016,01,18,17,22,9.80
2016,01,18,17,23,9.80
2016,01,18,17,24,9.80
2016,01,18,17,25,9.70
2016,01,18,17,26,9.70
2016,01,18,17,27,9.70
2016,01,18,17,28,9.70
2016,01,18,17,29,9.70
2016,01,18,17,30,9.60
2016,01,18,17,31,9.70
2016,01,18,17,32,9.70
2016,01,18,17,33,9.70
2016,01,18,17,34,9.80
2016,01,18,17,35,9.80
2016,01,18,17,36,9.80
2016,01,18,17,37,9.80
2016,01,18,17,38,9.80
2016,01,18,17,39,9.70
2016,01,18,17,40,9.70
2016,01,18,17,41,9.70
2016,01,18,17,42,9.80
2016,01,18,17,43,9.80
2016,01,18,17,44,9.80
2016,01,18,17,45,9.80
2016,01,18,17,46,9.80
2016,01,18,17,47,9.80
2016,01,18,17,48,9.80
2016,01,18,17,49,9.80
2016,01,18,17,50,9.90
2016,01,18,17,51,9.90
2016,01,18,17,52,9.90
2016,01,18,17,53,9.90
2016,01,18,17,54,9.90
2016,01,18,17,55,9.80
2016,01,18,17,56,9.80
2016,01,18,17,57,9.80
2016,01,18,17,58,9.80
2016,01,18,17,59,9.80
2016,01,18,18,00,9.80
2016,01,18,18,01,9.80
2016,01,18,18,02,9.80
2016,01,18,18,03,9.80
2016,01,18,18,04,9.80
2016,01,18,18,05,9.80
2016,01,18,18,06,9.70
2016,01,18,18,07,9.70
2016,01,18,18,08,9.70
2016,01,18,18,09,9.70
2016,01,18,18,10,9.70
2016,01,18,18,11,9.70
2016,01,18,18,12,9.70
2016,01,18,18,13,9.70
2016,01,18,18,14,9.80
2016,01,18,18,15,9.80
2016,01,18,18,16,9.80
2016,01,18,18,17,9.80
2016,01,18,18,18,9.80
2016,01,18,18,19,9.80
2016,01,18,18,20,9.80
2016,01,18,18,21,9.80
2016,01,18,18,22,9.80
2016,01,18,18,23,9.80
2016,01,18,18,24,9.80
2016,01,18,18,25,9.80
2016,01,18,18,26,9.80
2016,01,18,18,27,9.80
2016,01,18,18,28,9.80
2016,01,18,18,29,9.80
2016,01,18,18,30,9.90
2016,01,18,18,31,9.90
2016,01,18,18,32,9.90
2016,01,18,18,33,9.90
2016,01,18,18,34,9.90
2016,01,18,18,35,9.90
2016,01,18,18,36,9.90
2016,01,18,18,37,9.90
2016,01,18,18,38,10.00
2016,01,18,18,39,10.00
2016,01,18,18,40,10.00
2016,01,18,18,41,10.10
2016,01,18,18,42,10.10
2016,01,18,18,43,10.10
2016,01,18,18,44,10.10
2016,01,18,18,45,10.10
2016,01,18,18,46,10.10
2016,01,18,18,47,10.20
2016,01,18,18,48,10.10
2016,01,18,18,49,10.10
2016,01,18,18,50,10.10
2016,01,18,18,51,10.10
2016,01,18,18,52,10.00
2016,01,18,18,53,10.00
2016,01,18,18,54,9.90
2016,01,18,18,55,9.90
2016,01,18,18,56,9.90
2016,01,18,18,57,9.90
2016,01,18,18,58,9.90
2016,01,18,18,59,9.90
2016,01,18,19,00,9.80
2016,01,18,19,01,9.80
2016,01,18,19,02,9.80
2016,01,18,19,03,9.80
2016,01,18,19,04,9.80
2016,01,18,19,05,9.70
2016,01,18,19,06,9.70
2016,01,18,19,07,9.70
2016,01,18,19,08,9.70
2016,01,18,19,09,9.70
2016,01,18,19,10,9.70
2016,01,18,19,11,9.60
2016,01,18,19,12,9.60
2016,01,18,19,13,9.60
2016,01,18,19,14,9.60
2016,01,18,19,15,9.60
2016,01,18,19,16,9.60
2016,01,18,19,17,9.50
2016,01,18,19,18,9.50
2016,01,18,19,19,9.50
2016,01,18,19,20,9.50
2016,01,18,19,21,9.40
2016,01,18,19,22,9.40
2016,01,18,19,23,9.40
2016,01,18,19,24,9.40
2016,01,18,19,25,9.40
2016,01,18,19,26,9.30
2016,01,18,19,27,9.30
2016,01,18,19,28,9.30
2016,01,18,19,29,9.30
2016,01,18,19,30,9.30
2016,01,18,19,31,9.30
2016,01,18,19,32,9.30
2016,01,18,19,33,9.30
2016,01,18,19,34,9.30
2016,01,18,19,35,9.30
2016,01,18,19,36,9.20
2016,01,18,19,37,9.20
2016,01,18,19,38,9.10
2016,01,18,19,39,9.10
2016,01,18,19,40,9.10
2016,01,18,19,41,9.00
2016,01,18,19,42,9.00
2016,01,18,19,43,9.00
2016,01,18,19,44,9.00
2016,01,18,19,45,8.90
2016,01,18,19,46,8.90
2016,01,18,19,47,8.90
2016,01,18,19,48,8.90
2016,01,18,19,49,8.90
2016,01,18,19,50,8.90
2016,01,18,19,51,8.90
2016,01,18,19,52,8.80
2016,01,18,19,53,8.80
2016,01,18,19,54,8.80
2016,01,18,19,55,8.80
2016,01,18,19,56,8.80
2016,01,18,19,57,8.80
2016,01,18,19,58,8.80
2016,01,18,19,59,8.70
2016,01,18,20,00,8.70
2016,01,18,20,01,8.70
2016,01,18,20,02,8.60
2016,01,18,20,03,8.60
2016,01,18,20,04,8.50
2016,01,18,20,05,8.40
2016,01,18,20,06,8.40
2016,01,18,20,07,8.40
2016,01,18,20,08,8.40
2016,01,18,20,09,8.40
2016,01,18,20,10,8.30
2016,01,18,20,11,8.30
2016,01,18,20,12,8.30
2016,01,18,20,13,8.30
2016,01,18,20,14,8.30
2016,01,18,20,15,8.20
2016,01,18,20,16,8.20
2016,01,18,20,17,8.10
2016,01,18,20,18,8.10
2016,01,18,20,19,8.10
2016,01,18,20,20,8.10
2016,01,18,20,21,8.10
2016,01,18,20,22,8.00
2016,01,18,20,23,8.00
2016,01,18,20,24,8.00
2016,01,18,20,25,8.00
2016,01,18,20,26,8.00
2016,01,18,20,27,7.90
2016,01,18,20,28,7.90
2016,01,18,20,29,7.90
2016,01,18,20,30,7.90
2016,01,18,20,31,7.80
2016,01,18,20,32,7.80
2016,01,18,20,33,7.80
2016,01,18,20,34,7.70
2016,01,18,20,35,7.70
2016,01,18,20,36,7.60
2016,01,18,20,37,7.60
2016,01,18,20,38,7.50
2016,01,18,20,39,7.50
2016,01,18,20,40,7.40
2016,01,18,20,41,7.40
2016,01,18,20,42,7.40
2016,01,18,20,43,7.40
2016,01,18,20,44,7.40
2016,01,18,20,45,7.30
2016,01,18,20,46,7.30
2016,01,18,20,47,7.30
2016,01,18,20,48,7.30
2016,01,18,20,49,7.20
2016,01,18,20,50,7.20
2016,01,18,20,51,7.20
2016,01,18,20,52,7.10
2016,01,18,20,53,7.10
2016,01,18,20,54,7.10
2016,01,18,20,55,7.00
2016,01,18,20,56,7.00
2016,01,18,20,57,7.00
2016,01,18,20,58,6.90
2016,01,18,20,59,6.90
2016,01,18,21,00,6.90
2016,01,18,21,01,6.80
2016,01,18,21,02,6.80
2016,01,18,21,03,6.80
2016,01,18,21,04,6.80
2016,01,18,21,05,6.70
2016,01,18,21,06,6.70
2016,01,18,21,07,6.60
2016,01,18,21,08,6.60
2016,01,18,21,09,6.50
2016,01,18,21,10,6.50
2016,01,18,21,11,6.40
2016,01,18,21,12,6.40
2016,01,18,21,13,6.40
2016,01,18,21,14,6.30
2016,01,18,21,15,6.30
2016,01,18,21,16,6.30
2016,01,18,21,17,6.30
2016,01,18,21,18,6.30
2016,01,18,21,19,6.30
2016,01,18,21,20,6.30
2016,01,18,21,21,6.30
2016,01,18,21,22,6.30
2016,01,18,21,23,6.30
2016,01,18,21,24,6.30
2016,01,18,21,25,6.30
2016,01,18,21,26,6.20
2016,01,18,21,27,6.20
2016,01,18,21,28,6.20
2016,01,18,21,29,6.20
2016,01,18,21,30,6.20
2016,01,18,21,31,6.10
2016,01,18,21,32,6.10
2016,01,18,21,33,6.10
2016,01,18,21,34,6.10
2016,01,18,21,35,6.00
2016,01,18,21,36,6.00
2016,01,18,21,37,6.00
2016,01,18,21,38,5.90
2016,01,18,21,39,5.90
2016,01,18,21,40,5.90
2016,01,18,21,41,5.90
2016,01,18,21,42,5.90
2016,01,18,21,43,5.80
2016,01,18,21,44,5.80
2016,01,18,21,45,5.80
2016,01,18,21,46,5.80
2016,01,18,21,47,5.80
2016,01,18,21,48,5.70
2016,01,18,21,49,5.70
2016,01,18,21,50,5.60
2016,01,18,21,51,5.60
2016,01,18,21,52,5.60
2016,01,18,21,53,5.60
2016,01,18,21,54,5.50
2016,01,18,21,55,5.50
2016,01,18,21,56,5.50
2016,01,18,21,57,5.50
2016,01,18,21,58,5.40
2016,01,18,21,59,5.40
2016,01,18,22,00,5.40
2016,01,18,22,01,5.40
2016,01,18,22,02,5.40
2016,01,18,22,03,5.40
2016,01,18,22,04,5.40
2016,01,18,22,05,5.40
2016,01,18,22,06,5.40
2016,01,18,22,07,5.40
2016,01,18,22,08,5.40
2016,01,18,22,09,5.40
2016,01,18,22,10,5.30
2016,01,18,22,11,5.30
2016,01,18,22,12,5.30
2016,01,18,22,13,5.30
2016,01,18,22,14,5.30
2016,01,18,22,15,5.30
2016,01,18,22,16,5.30
2016,01,18,22,17,5.30
2016,01,18,22,18,5.20
2016,01,18,22,19,5.20
2016,01,18,22,20,5.20
2016,01,18,22,21,5.20
2016,01,18,22,22,5.20
2016,01,18,22,23,5.20
2016,01,18,22,24,5.20
2016,01,18,22,25,5.10
2016,01,18,22,26,5.10
2016,01,18,22,27,5.10
2016,01,18,22,28,5.10
2016,01,18,22,29,5.10
2016,01,18,22,30,5.10
2016,01,18,22,31,5.10
2016,01,18,22,32,5.10
2016,01,18,22,33,5.10
2016,01,18,22,34,5.10
2016,01,18,22,35,5.10